Location: Aulus
(42.7909°N, 1.3399°E)
Time: 05:39:59
(UTC+00:00)

MetOp-B - Pass Details

Date: 19 May 2025
Orbit: 819 x 821 km, 98.6° (Epoch: 13 June)

Event Time Altitude Azimuth Distance (km) Brightness Sun altitude
Exits shadow 20:20:52 - 162° (SSE) 2,487 6.1 -10.8°
Reaches altitude 10° 20:21:04 10° 162° (SSE) 2,409 6.1 -10.8°
Maximum altitude 20:26:25 84° 74° (ENE) 831 4.1 -11.6°
Drops below altitude 10° 20:31:48 10° 348° (NNW) 2,425 7.5 -12.3°
Sets 20:34:09 0° 348° (NNW) 3,362 8.3 -12.6°
